Location: Deer Path Park
(40.5570°N, 74.8450°W)
Time: 02:47:15
(UTC-04:00)

Iridium 49 - Visible Passes

Search period start: 31 August 2015 00:00
Search period end: 10 September 2015 00:00
Orbit: 776 x 779 km, 86.4° (Epoch: 30 August)

Date Brightness Start Highest point End Pass type
(mag) Time Alt. Az. Time Alt. Az. Time Alt. Az.
31 Aug 8.4 01:34:43 10° N 01:36:03 18° N 01:36:03 18° N visible
01 Sep 8.5 01:01:13 10° N 01:02:27 17° N 01:02:27 17° N visible
02 Sep 8.7 00:28:00 10° NNE 00:28:52 14° NNE 00:28:52 14° NNE visible
02 Sep 8.7 02:08:57 10° NNW 02:09:19 12° NNW 02:09:19 12° NNW visible
03 Sep 8.7 01:34:55 10° NNW 01:35:44 15° NNW 01:35:44 15° NNW visible
04 Sep 8.7 01:01:14 10° N 01:02:09 15° N 01:02:09 15° N visible
05 Sep 8.7 00:27:50 10° N 00:28:35 14° NNE 00:28:35 14° NNE visible
05 Sep 8.8 23:54:47 10° NNE 23:55:01 11° NNE 23:55:01 11° NNE visible
06 Sep 8.9 01:35:14 10° NNW 01:35:28 11° NNW 01:35:28 11° NNW visible
07 Sep 8.8 01:01:20 10° N 01:01:54 13° N 01:01:54 13° N visible
08 Sep 8.8 00:27:46 10° N 00:28:20 13° N 00:28:20 13° N visible
08 Sep 8.8 23:54:30 10° NNE 23:54:47 11° NNE 23:54:47 11° NNE visible
